Content
SEND FEEDBACK

Daily
Averages
Monthly
Summary
United States of America

ASH MOUNTAIN, CALIFORNIA


Home > North America > United States > California
Elevation: 2078 feet     Latitude: 36 29N     Longitude: 118 50W

WEATHER
 
SELECT A DAY
Number of Records: 454,335;   Date Range: 1/1/95 - 10/20/14
 
SHARE

PRINT THIS DATA

[ ← Previous Day ]
WEATHER ALMANAC - JANUARY 3, 2013
[ Next Day → ]
[ °C ]   °F
Weather ElementAverageHighLow
Temperature39.4 °F55.4 °F (2:55 pm)28.4 °F (3:15 am)
Dewpoint32.6 °F39.2 °F (2:55 pm)24.8 °F (4:15 am)
Humidity78.3 %93 % (1:15 am)51 % (3:15 pm)
Barometer30.24 in30.31 in (10:35 pm)30.19 in (12:35 am)
Wind Speed2.8 mph8.1 mph (4:55 pm)
Weather ElementAverage
Visibility6.5 mi
Wind DirectionESE (125.9 °)

Weather ElementTotal
Precipitation---
Heating Degree Days23.1 (Base 65)
Averaged from 68 records on January 3, 2013
WEATHER CONDITIONS BREAKOUT
WIND DIRECTION BREAKOUT
WEATHER BY HOUR - JANUARY 3, 2013
[ °C ]   °F
Local TimeTemperatureDewpointHumidityBarometerVisibilityWind DirectionWind SpeedGust SpeedPrecipitationEventsConditions
12:35 AM32.0 °F28.4 °F87 %30.19 in7.0 miEast (90°)3.5 mphClear
12:55 AM32.0 °F28.4 °F87 %30.19 in6.0 miCalmClear
1:15 AM30.2 °F28.4 °F93 %30.19 in7.0 miSouth (180°)5.8 mphClear
1:35 AM30.2 °F26.6 °F86 %30.20 in7.0 miCalmClear
1:55 AM30.2 °F26.6 °F86 %30.20 in7.0 miSE (140°)3.5 mphClear
2:15 AM30.2 °F26.6 °F86 %30.20 in9.0 miEast (100°)3.5 mphClear
2:35 AM30.2 °F26.6 °F86 %30.21 in9.0 miCalmClear
2:55 AM30.2 °F26.6 °F86 %30.22 in5.0 miWest (260°)3.5 mphClear
3:15 AM28.4 °F26.6 °F93 %30.22 in3.0 miCalmClear
3:35 AM30.2 °F26.6 °F86 %30.22 in5.0 miCalmClear
3:55 AM30.2 °F26.6 °F86 %30.22 in5.0 miCalmClear
4:15 AM28.4 °F24.8 °F86 %30.21 in5.0 miESE (110°)3.5 mphClear
4:35 AM28.4 °F26.6 °F93 %30.21 in5.0 miESE (110°)3.5 mphClear
4:55 AM28.4 °F24.8 °F86 %30.21 in3.0 miCalmClear
5:35 AM28.4 °F24.8 °F86 %30.22 in7.0 miSE (140°)3.5 mphClear
5:55 AM28.4 °F24.8 °F86 %30.23 in7.0 miESE (110°)3.5 mphClear
6:15 AM28.4 °F24.8 °F86 %30.23 in6.0 miCalmClear
6:35 AM28.4 °F26.6 °F93 %30.24 in8.0 miESE (110°)3.5 mphClear
6:55 AM28.4 °F26.6 °F93 %30.24 in8.0 miCalmClear
7:15 AM28.4 °F24.8 °F86 %30.25 in6.0 miCalmClear
7:35 AM30.2 °F26.6 °F86 %30.25 in6.0 miCalmClear
7:55 AM32.0 °F28.4 °F87 %30.25 in7.0 miENE (70°)3.5 mphClear
8:15 AM33.8 °F30.2 °F87 %30.25 in7.0 miCalmClear
8:35 AM35.6 °F30.2 °F81 %30.26 in5.0 miCalmClear
8:55 AM37.4 °F33.8 °F87 %30.25 in5.0 miCalmClear
9:15 AM39.2 °F35.6 °F87 %30.26 in7.0 miCalmClear
9:35 AM42.8 °F35.6 °F76 %30.26 in8.0 miCalmClear
9:55 AM44.6 °F37.4 °F76 %30.27 in7.0 miWSW (250°)5.8 mphClear
10:15 AM44.6 °F37.4 °F76 %30.27 in6.0 miWest (280°)4.6 mphClear
10:35 AM46.4 °F37.4 °F71 %30.27 in6.0 miNW (310°)5.8 mphClear
10:55 AM46.4 °F37.4 °F71 %30.27 in6.0 miWest (280°)5.8 mphClear
11:15 AM48.2 °F37.4 °F66 %30.27 in6.0 miNNW (330°)4.6 mphClear
11:35 AM48.2 °F37.4 °F66 %30.26 in6.0 miNW (310°)3.5 mphClear
11:55 AM48.2 °F37.4 °F66 %30.25 in7.0 miNNW (330°)3.5 mphClear
12:15 PM50.0 °F37.4 °F62 %30.24 in7.0 miNW (310°)4.6 mphClear
12:35 PM51.8 °F35.6 °F54 %30.23 in9.0 miCalmClear
12:55 PM53.6 °F37.4 °F54 %30.23 in8.0 miNW (320°)4.6 mphClear
1:15 PM53.6 °F37.4 °F54 %30.22 in8.0 miWNW (290°)4.6 mphClear
1:55 PM53.6 °F37.4 °F54 %30.22 in10.0 miCalmClear
2:15 PM53.6 °F37.4 °F54 %30.22 in10.0 miWNW (300°)3.5 mphClear
2:35 PM53.6 °F37.4 °F54 %30.22 in10.0 miWNW (300°)5.8 mphClear
2:55 PM55.4 °F39.2 °F54 %30.22 in10.0 miWNW (290°)5.8 mphClear
3:15 PM55.4 °F37.4 °F51 %30.23 in10.0 miWNW (300°)3.5 mphClear
3:35 PM55.4 °F37.4 °F51 %30.22 in10.0 miCalmClear
3:55 PM55.4 °F37.4 °F51 %30.22 in10.0 miNNW (330°)3.5 mphClear
4:15 PM53.6 °F39.2 °F58 %30.23 in10.0 miWNW (290°)6.9 mphClear
4:35 PM51.8 °F39.2 °F62 %30.23 in10.0 miWNW (290°)6.9 mphClear
4:55 PM48.2 °F39.2 °F71 %30.23 in9.0 miWNW (290°)8.1 mphClear
5:15 PM46.4 °F37.4 °F71 %30.24 in8.0 miWNW (300°)5.8 mphClear
5:35 PM44.6 °F37.4 °F76 %30.24 in8.0 miWNW (300°)3.5 mphClear
5:55 PM44.6 °F37.4 °F76 %30.24 in8.0 miCalmClear
6:15 PM44.6 °F37.4 °F76 %30.24 in8.0 miCalmClear
6:35 PM41.0 °F35.6 °F81 %30.25 in7.0 miCalmClear
6:55 PM39.2 °F33.8 °F81 %30.26 in5.0 miCalmClear
7:15 PM41.0 °F37.4 °F87 %30.26 in4.0 miCalmClear
7:35 PM39.2 °F35.6 °F87 %30.27 in5.0 miCalmClear
7:55 PM37.4 °F33.8 °F87 %30.27 in4.0 miSE (130°)5.8 mphClear
8:15 PM37.4 °F33.8 °F87 %30.27 in4.0 miESE (120°)6.9 mphClear
8:35 PM35.6 °F33.8 °F93 %30.27 in3.0 miSE (130°)8.1 mphClear
8:55 PM35.6 °F33.8 °F93 %30.27 in3.0 miSE (130°)5.8 mphClear
9:15 PM35.6 °F32.0 °F87 %30.28 in3.0 miSE (140°)5.8 mphClear
9:35 PM35.6 °F32.0 °F87 %30.28 in3.0 miSE (140°)3.5 mphClear
9:55 PM35.6 °F33.8 °F93 %30.29 in3.0 miSE (140°)3.5 mphClear
10:15 PM35.6 °F33.8 °F93 %30.30 in4.0 miCalmClear
10:35 PM35.6 °F30.2 °F81 %30.31 in5.0 miCalmClear
10:55 PM33.8 °F30.2 °F87 %30.31 in4.0 miCalmClear
11:35 PM33.8 °F30.2 °F87 %30.31 in3.0 miEast (100°)4.6 mphClear
11:55 PM33.8 °F30.2 °F87 %30.30 in4.0 miESE (110°)3.5 mphClear
Hourly data recorded from KPTV, located miles away from Ash Mountain, California







STORIES FROM OUR PARTNERS